Temperature
21 21 21 21 24 25 24 24 24 24 24 23 22 23 23 22 22 21 17 17 17 17 17 17 17 17 17 18 18 18 17 17 17 17 17 18 18 18 18 18 18 18 18 18 18 18 18 18 18
20 21 21 23 25 24 23 24 24 24 23 22 22 22 22 21 19 18 17 17 17 17 17 17 17 17 17 18 18 18 17 17 17 17 17 18 18 18 18 18 18 18 18 18 18 18 18 18 18
21 21 22 25 25 25 24 24 24 23 22 22 22 22 22 20 19 18 17 17 17 17 17 17 17 17 17 17 17 17 17 17 17 17 17 17 17 17 17 17 17 17 17 17 18 17 18 18 18
20 21 23 24 24 24 24 24 24 23 22 22 22 22 20 18 18 18 17 17 17 17 17 17 17 17 17 17 17 17 17 17 17 17 17 17 17 17 17 17 17 17 17 17 17 17 17 17 17
21 23 24 24 23 24 24 24 23 24 23 22 22 22 20 18 17 17 17 17 17 17 17 17 17 17 17 17 17 17 17 17 17 17 17 17 17 17 17 17 17 17 17 17 17 17 17 17 17
22 24 24 23 23 23 24 23 23 24 23 22 22 22 20 18 17 17 17 17 17 17 17 17 17 17 17 17 17 17 17 17 17 17 17 17 17 17 17 17 17 17 17 17 17 17 17 17 17
23 24 24 23 23 23 23 23 23 23 23 22 22 22 19 18 17 17 17 17 17 17 17 16 16 17 17 17 17 17 17 17 17 17 17 17 17 17 17 17 17 17 17 17 17 17 17 17 17
22 24 23 23 23 23 23 22 22 22 22 20 21 22 20 18 17 17 17 17 17 17 17 17 16 16 16 16 17 17 17 17 17 17 17 17 16 16 16 16 16 16 17 17 17 17 17 17 17
22 24 23 23 23 23 23 23 22 21 21 20 20 20 19 17 17 17 17 17 17 17 17 17 16 16 16 16 16 16 16 16 16 16 16 16 16 16 16 16 16 16 16 16 16 16 16 16 16
23 23 23 23 23 23 22 22 22 22 22 21 19 18 17 17 17 17 17 17 17 17 17 17 16 16 16 16 16 16 16 16 16 16 16 16 16 16 16 16 16 16 16 16 16 16 16 16 15
23 23 23 22 22 22 22 22 21 22 22 21 20 18 17 17 17 17 17 17 17 17 16 16 16 16 16 16 16 16 16 16 16 16 16 16 16 16 15 16 15 15 15 15 15 15 15 15 15
23 22 22 22 21 21 22 21 21 21 21 20 20 19 18 17 17 17 17 17 17 17 16 16 16 16 16 16 16 16 16 16 15 15 15 15 15 15 15 15 15 15 15 15 15 15 15 15 15
22 22 21 21 21 21 21 21 21 21 20 19 19 18 18 18 18 17 17 17 17 17 16 16 16 16 16 16 16 16 15 15 15 15 15 15 15 15 15 15 15 15 15 15 15 15 15 15 15
22 22 21 21 21 21 21 21 21 21 19 19 19 18 18 18 18 18 17 17 17 17 17 16 16 16 16 16 16 16 15 15 15 15 15 15 15 15 15 15 15 15 15 15 15 15 15 15 15
21 22 22 22 22 22 22 22 22 20 19 19 19 18 18 18 18 17 17 17 17 17 16 16 16 16 16 16 16 15 15 15 15 15 15 15 15 15 15 15 15 14 14 14 14 14 14 14 14
23 23 22 22 22 21 22 22 22 20 20 20 19 19 18 18 18 17 17 17 17 17 16 16 16 16 16 16 16 15 15 15 15 15 15 15 15 15 14 14 14 14 14 14 14 14 14 14 14
22 22 22 22 22 22 22 22 22 20 20 20 19 19 18 18 18 17 17 17 17 17 16 16 16 16 16 16 15 15 15 15 15 15 15 14 14 14 14 14 14 14 14 14 14 14 14 14 14
22 22 22 22 22 22 22 22 22 20 20 20 20 19 19 18 18 17 17 17 16 16 16 16 16 16 16 15 15 15 15 15 14 14 14 14 14 14 14 14 14 14 14 14 14 14 14 14 14
22 22 22 22 22 22 22 22 22 21 20 20 20 19 19 19 18 17 17 17 16 16 16 16 16 16 15 15 15 15 15 14 14 14 14 14 14 14 14 14 14 14 14 14 14 14 13 13 13
22 22 22 22 22 22 22 22 22 21 21 20 20 20 19 18 18 17 17 16 16 16 16 16 16 15 15 15 15 15 14 14 14 14 14 14 14 14 14 14 14 14 14 14 14 14 13 13 13
22 22 22 21 21 21 21 22 22 22 20 20 19 19 19 18 18 17 17 16 16 16 16 16 15 15 15 15 15 15 14 14 14 14 14 14 14 14 14 13 13 13 13 13 13 13 13 13 13
22 22 21 21 21 22 21 22 22 22 21 21 19 19 18 18 18 17 17 16 16 16 16 15 15 15 15 15 14 14 14 14 14 14 14 14 14 13 13 13 13 13 13 13 13 13 13 13 13
21 21 21 21 21 21 21 21 22 22 21 21 20 19 18 18 17 17 17 16 16 16 15 15 15 15 15 15 14 14 14 14 14 14 14 14 14 13 13 13 13 13 13 13 13 13 13 13 13
21 21 21 21 21 21 21 21 22 22 21 21 20 19 18 18 17 17 16 16 16 16 15 15 15 15 15 15 14 14 14 14 14 14 14 14 13 13 13 13 13 13 13 13 13 13 13 13 13
21 21 21 21 21 21 21 21 21 21 21 21 20 19 18 17 17 17 16 16 16 15 15 15 15 15 15 14 14 14 14 14 14 14 13 13 13 13 13 13 13 13 13 13 13 13 13 13 13
21 21 21 20 21 21 21 21 22 21 20 19 19 18 17 17 17 16 16 15 15 15 15 15 15 14 14 14 14 14 14 14 14 14 13 13 13 13 13 13 13 13 13 13 13 12 13 12 12
21 21 21 21 21 20 21 21 21 20 20 19 19 18 17 16 16 16 15 15 15 15 15 15 14 14 14 14 14 14 14 14 14 14 13 13 13 13 13 13 13 13 13 12 12 12 12 12 12
21 21 20 20 20 20 21 21 21 20 20 20 19 18 17 16 16 15 15 15 15 14 14 14 14 14 14 14 14 14 14 14 14 13 13 13 13 13 13 13 13 13 12 12 12 12 12 12 12
19 20 20 20 20 20 20 21 21 20 20 20 19 18 17 16 16 15 15 15 14 14 14 14 14 14 14 14 14 13 13 13 13 13 13 13 13 13 13 13 13 12 12 12 12 12 12 12 12
19 20 20 19 20 20 20 20 20 19 19 19 18 18 17 16 16 15 14 14 14 14 14 13 13 13 13 13 13 13 13 13 13 13 13 13 13 13 13 12 12 12 12 12 12 12 12 12 12
Wind_Speed
3 2 2 2 2 3 5 5 5 5 4 5 5 4 5 6 5 5 4 3 3 3 4 4 6 6 7 8 8 8 9 11 11 11 11 10 10 10 10 10 11 11 11 11 11 11 11 12 11
1 1 2 2 1 5 5 5 6 6 6 6 5 5 5 6 5 6 4 3 3 4 4 5 6 7 8 9 9 10 11 12 12 12 12 11 11 11 11 11 11 12 11 11 11 11 11 11 11
2 1 1 1 2 3 6 6 7 8 6 3 4 4 4 5 5 4 5 4 5 5 5 8 7 8 9 10 10 11 12 12 12 12 13 13 13 13 12 13 12 12 12 11 11 11 11 11 11
2 2 1 2 6 5 5 7 7 7 5 4 4 6 5 5 3 5 7 6 6 6 6 8 8 9 10 10 11 12 12 13 13 13 13 13 13 13 13 13 13 13 13 12 11 11 11 11 11
2 1 3 4 5 4 4 4 4 4 4 4 5 7 7 5 6 8 7 6 6 6 7 9 9 10 11 11 12 12 13 13 13 13 13 13 13 14 14 14 14 14 14 13 12 11 11 11 11
2 2 3 5 5 4 4 3 4 4 5 5 5 6 6 6 7 7 6 6 7 6 7 8 9 10 11 11 12 12 13 13 13 13 13 13 14 14 14 14 14 14 14 14 13 12 11 11 11
2 2 3 5 5 5 3 3 3 4 5 4 3 5 6 7 6 6 6 6 6 6 6 6 7 9 10 11 12 13 13 13 13 13 13 14 14 14 14 14 15 14 13 13 12 12 11 11 10
1 2 4 4 5 4 4 4 3 3 4 4 2 3 5 8 7 7 7 6 6 6 6 6 6 7 8 10 12 12 12 13 13 13 13 12 12 13 13 13 14 13 13 12 12 12 11 10 10
2 3 4 4 4 4 4 4 3 3 5 4 3 4 6 11 9 8 7 6 6 5 5 5 6 6 7 8 9 9 10 10 9 10 9 7 9 10 11 14 13 13 13 12 12 11 10 9 9
2 3 3 3 2 4 4 3 4 5 5 4 5 6 10 11 10 8 7 6 6 6 5 4 5 5 6 6 6 6 6 7 7 7 7 7 8 9 10 12 12 12 11 11 10 8 7 5 6
2 3 4 3 3 4 4 3 3 4 3 3 5 8 11 10 9 7 6 6 5 5 5 4 4 4 5 4 4 4 4 5 5 6 7 6 7 7 7 7 7 8 7 8 7 6 7 7 6
4 4 3 3 3 3 3 3 2 2 2 3 5 10 12 10 8 7 6 5 5 4 4 4 4 4 4 4 4 4 3 4 4 5 6 5 4 4 5 5 6 5 6 6 6 5 7 8 8
4 4 4 4 4 3 3 2 2 2 2 4 7 9 10 9 7 6 5 5 5 5 4 4 4 4 4 4 3 3 4 4 5 5 5 5 4 4 4 5 5 5 5 5 5 5 6 7 7
4 5 4 3 3 2 2 1 2 3 4 6 8 8 8 8 7 7 6 5 5 5 4 4 4 3 4 3 3 3 4 4 4 4 4 5 4 4 4 4 4 5 5 5 4 5 5 5 5
5 5 4 3 3 3 3 3 3 4 6 6 7 7 7 7 6 6 6 5 5 5 5 5 4 4 3 3 3 3 3 3 3 4 4 4 4 4 4 4 4 4 4 4 4 5 5 5 5
5 5 4 3 3 3 5 4 3 4 6 6 6 7 7 7 7 6 6 5 5 5 5 5 4 4 4 3 3 3 3 3 3 3 3 4 4 4 4 3 3 4 4 3 3 3 4 4 4
5 4 4 4 3 4 5 4 4 5 7 6 7 7 7 7 7 6 6 6 5 5 6 6 5 5 4 3 3 3 3 3 2 3 3 2 3 3 3 3 3 3 3 3 3 3 3 4 3
4 4 4 3 3 4 5 4 3 5 7 7 6 7 8 8 7 7 6 6 6 5 5 6 5 4 4 3 3 3 3 2 2 2 2 2 2 2 3 2 3 3 3 3 2 3 3 3 2
3 4 3 2 2 4 5 5 5 5 6 7 7 7 7 7 7 6 6 6 6 6 6 5 5 5 4 3 3 3 3 2 2 1 2 2 2 2 2 2 2 2 2 2 2 2 3 2 2
5 5 4 3 2 4 5 6 5 4 5 6 6 7 7 7 6 6 6 7 7 7 6 6 6 6 5 3 2 2 2 2 2 2 2 2 1 1 1 1 1 1 1 1 2 1 1 2 0
6 5 4 3 3 5 5 6 5 4 4 4 5 5 6 7 7 8 7 8 7 7 7 6 7 7 6 5 3 3 2 2 2 2 2 2 2 1 1 1 1 1 1 1 1 1 1 1 1
5 4 5 5 6 4 4 4 4 4 5 4 4 4 5 7 7 7 7 7 8 7 7 7 7 7 7 7 5 5 4 3 3 3 2 2 2 2 2 2 1 2 1 1 2 1 1 1 1
2 3 4 5 6 6 5 6 3 4 4 4 3 3 4 5 7 7 7 7 7 7 7 7 7 7 7 7 6 5 4 4 3 3 3 3 3 2 2 2 2 2 2 2 2 2 2 2 2
5 5 5 5 6 7 5 6 3 3 4 3 2 2 2 3 5 5 6 6 6 7 7 7 7 7 7 7 7 7 6 4 4 4 4 3 2 2 2 2 2 2 2 2 2 2 3 2 2
6 6 4 5 5 4 3 6 3 0 2 3 2 2 2 2 3 4 5 5 6 7 7 7 8 7 7 7 7 7 6 6 5 4 4 4 3 3 3 3 3 2 2 2 2 3 3 3 3
7 7 4 3 4 3 4 5 1 1 2 2 2 2 3 2 2 3 3 4 5 6 7 7 8 8 7 8 8 7 6 5 4 4 4 4 3 3 3 4 3 3 3 3 3 3 3 3 3
6 7 5 5 5 5 4 4 3 3 3 3 3 3 3 2 2 2 2 3 4 5 6 7 7 8 7 8 7 7 6 5 5 5 4 4 3 3 4 4 4 4 4 4 3 3 3 3 3
3 4 4 6 4 6 5 7 4 4 4 3 3 3 2 2 2 2 2 2 3 4 5 6 6 6 7 7 6 5 6 6 5 5 4 4 4 3 4 4 4 4 4 4 4 3 3 3 3
4 5 5 5 5 5 5 3 1 2 3 3 3 2 2 2 2 1 1 1 2 3 4 5 5 5 5 5 6 6 5 5 5 4 4 4 4 4 4 4 4 4 4 4 4 5 4 4 4
5 6 7 6 5 6 6 3 3 2 2 2 2 2 2 1 1 1 1 1 2 2 3 3 4 4 4 4 5 5 5 5 4 4 4 5 4 4 4 4 4 4 4 5 5 5 5 5 5
Wind_Direction
194 194 231 245 207 116 95 93 99 107 95 77 70 66 67 49 33 69 86 89 80 89 75 77 51 53 56 58 65 75 77 79 78 76 75 75 80 83 84 88 91 93 96 96 96 95 94 94 92
188 209 238 253 190 128 105 110 105 91 102 109 88 79 77 72 59 89 103 92 97 87 78 71 59 61 64 63 69 77 82 79 76 74 69 73 81 81 80 83 87 89 91 91 93 94 95 94 91
167 240 272 216 117 115 118 117 110 104 109 113 99 72 65 76 86 95 101 116 103 87 80 75 67 69 69 69 77 81 82 81 76 73 69 74 79 79 79 80 83 85 86 87 89 91 92 93 92
206 204 202 125 111 92 106 119 123 126 113 97 112 100 86 70 80 97 113 116 102 90 83 80 67 70 71 75 79 81 80 80 78 75 75 75 77 78 79 80 81 82 83 82 83 87 88 90 92
224 201 147 132 120 112 107 121 138 131 119 111 115 106 99 86 91 107 115 112 102 94 88 87 75 73 73 77 80 79 78 79 79 76 76 76 78 80 80 79 79 79 78 78 78 82 84 85 86
187 187 160 147 135 129 123 135 148 125 116 117 121 114 103 111 111 111 114 110 102 96 92 95 89 79 76 75 77 77 78 80 79 77 74 75 76 77 80 80 78 78 75 74 74 75 78 80 81
186 149 147 144 144 144 132 140 145 128 123 116 124 115 122 130 118 123 118 112 104 97 94 92 95 96 89 80 75 74 73 76 78 77 75 74 74 76 79 81 79 79 78 77 76 74 73 75 78
213 156 149 153 156 140 133 139 119 125 112 108 124 124 137 144 136 130 121 116 111 102 96 94 95 90 92 92 81 77 73 72 74 76 74 76 82 82 80 82 78 77 75 73 73 73 73 75 74
213 180 159 155 157 136 143 148 119 115 122 118 91 72 115 138 141 135 130 124 118 108 102 99 99 96 94 91 92 89 85 80 84 84 83 86 82 81 83 74 75 73 72 72 72 72 74 79 79
195 171 145 118 123 127 135 142 143 151 137 129 112 101 125 141 147 143 139 133 131 123 116 109 105 101 100 95 96 88 87 86 80 80 81 79 79 76 78 83 77 76 76 78 75 76 81 69 77
158 143 133 126 114 124 130 125 151 168 154 156 148 141 144 150 152 150 145 136 126 125 121 118 117 109 103 100 95 85 80 82 83 81 83 84 84 85 79 80 81 77 76 72 78 79 67 67 68
140 120 134 132 127 136 133 141 151 169 107 108 134 144 150 157 157 156 151 143 138 131 130 126 122 114 107 101 95 95 90 83 81 82 85 86 80 74 76 75 71 68 67 64 62 63 70 68 67
146 141 127 127 127 123 119 139 145 148 101 117 133 145 154 159 159 154 150 149 150 146 144 134 132 123 112 103 102 95 89 87 89 84 87 87 84 78 77 79 74 69 67 69 64 65 68 66 63
140 142 149 154 154 162 150 159 188 155 135 134 144 155 161 163 164 160 160 161 159 158 154 144 146 136 125 122 119 104 95 97 91 88 90 91 85 79 76 77 75 69 67 68 72 76 71 66 64
153 153 158 178 192 192 197 205 204 157 156 150 155 161 165 170 174 176 171 173 172 163 160 150 151 147 140 130 120 109 101 98 93 89 91 92 87 85 82 77 77 76 76 77 76 79 76 73 73
179 188 192 178 204 205 222 214 174 171 178 170 170 171 175 182 188 187 183 184 180 170 163 156 158 155 144 139 138 123 110 99 95 92 88 93 93 85 82 79 79 78 77 78 82 82 82 77 73
200 202 199 182 199 208 225 225 177 186 195 192 187 187 187 188 194 195 194 193 188 183 172 163 162 155 148 148 144 130 119 108 100 95 90 93 95 92 88 78 80 81 83 79 81 77 80 83 76
190 200 201 204 183 209 223 233 206 196 206 207 201 200 198 198 199 199 198 196 193 189 180 168 158 155 150 152 154 140 131 133 115 105 99 90 92 93 93 98 92 88 85 78 80 88 84 85 95
205 209 207 204 187 220 229 242 243 212 210 214 210 208 208 205 198 195 193 193 194 191 186 171 167 160 151 152 161 162 158 155 151 140 122 114 109 105 106 114 104 97 91 86 90 94 106 97 101
207 212 208 188 194 229 239 248 249 225 220 223 219 212 212 205 196 187 187 188 193 187 183 177 177 171 166 162 166 171 160 171 167 166 157 152 135 127 123 153 145 134 112 113 100 92 100 102 102
208 222 224 230 214 213 248 239 218 212 214 217 223 221 219 213 206 195 194 194 193 191 187 186 183 175 172 166 162 154 149 167 172 181 185 185 188 185 192 216 194 184 195 183 183 170 193 178 154
219 216 227 224 233 229 245 255 213 208 207 209 213 215 218 215 212 203 198 198 196 194 189 190 188 183 179 175 179 181 191 195 202 197 192 196 205 213 218 217 226 219 223 216 228 226 240 243 216
216 196 216 228 242 245 231 251 225 198 218 213 200 209 217 213 209 207 204 201 197 191 189 191 189 186 184 186 187 197 208 209 202 202 205 208 203 211 212 215 223 230 234 238 240 241 245 251 253
179 189 196 218 240 241 229 242 241 204 238 235 206 188 192 197 196 202 200 196 193 188 188 190 193 190 188 193 196 203 209 212 207 210 213 214 205 206 213 219 221 228 234 236 238 238 242 252 259
207 222 224 219 223 237 208 236 248 254 251 234 220 182 155 161 176 181 185 191 190 188 189 193 195 196 194 198 205 208 213 215 218 220 221 223 218 214 214 220 225 224 229 232 234 239 243 242 247
216 228 245 257 249 241 208 233 218 134 157 181 180 159 142 134 139 158 173 186 188 190 194 199 199 201 201 206 209 211 214 218 225 226 230 232 233 228 219 220 222 222 223 225 230 243 240 245 245
215 219 255 269 266 253 226 224 207 173 175 174 164 149 142 137 127 131 159 178 186 191 194 199 201 202 203 208 209 211 217 218 222 227 229 235 237 229 220 215 216 218 221 222 221 236 236 240 245
254 210 221 235 246 248 239 235 224 189 194 181 175 167 150 142 142 133 147 175 184 191 193 195 201 203 203 208 209 211 217 219 221 223 225 230 228 215 214 216 212 215 219 220 220 233 235 231 235
191 202 229 238 247 257 260 233 164 212 201 187 176 181 179 164 156 148 148 165 173 180 186 192 198 199 198 203 209 212 214 216 215 221 225 229 229 222 221 223 222 221 223 224 221 229 226 233 232
236 226 224 240 235 242 267 261 112 189 200 203 212 203 185 169 149 141 143 137 139 163 186 194 198 203 204 206 209 215 214 209 213 220 224 226 227 226 229 229 227 229 232 232 230 231 231 234 238
Height
1501 1501 1502 1503 1501 1500 1506 1507 1505 1507 1508 1511 1512 1512 1512 1513 1516 1523 1523 1521 1521 1520 1519 1518 1517 1516 1515 1514 1514 1514 1514 1514 1514 1514 1513 1512 1512 1513 1514 1515 1515 1516 1516 1517 1517 1518 1519 1519 1519
1502 1502 1504 1503 1499 1506 1511 1507 1507 1508 1511 1513 1514 1514 1514 1517 1520 1522 1522 1522 1522 1522 1521 1519 1517 1516 1516 1515 1515 1515 1515 1515 1515 1515 1513 1511 1512 1514 1516 1517 1517 1518 1518 1519 1519 1520 1520 1521 1521
1502 1503 1505 1501 1501 1505 1509 1507 1508 1511 1513 1514 1515 1516 1517 1521 1523 1523 1523 1523 1523 1523 1522 1520 1519 1518 1517 1516 1516 1517 1517 1517 1517 1516 1515 1513 1514 1516 1517 1519 1519 1520 1520 1521 1521 1521 1522 1522 1523
1504 1506 1505 1503 1506 1506 1506 1508 1510 1512 1514 1515 1515 1517 1520 1523 1524 1525 1524 1524 1525 1524 1524 1522 1521 1520 1519 1519 1519 1519 1519 1519 1519 1519 1518 1518 1518 1519 1520 1521 1521 1522 1522 1522 1522 1523 1523 1524 1524
1504 1505 1503 1506 1508 1507 1508 1509 1511 1511 1513 1515 1516 1518 1522 1525 1525 1525 1525 1526 1526 1526 1525 1524 1523 1523 1522 1521 1521 1521 1521 1521 1521 1521 1521 1521 1521 1522 1522 1523 1523 1523 1524 1524 1524 1525 1525 1525 1525
1506 1503 1505 1509 1509 1509 1510 1511 1512 1512 1514 1517 1517 1519 1523 1525 1526 1526 1527 1527 1527 1527 1527 1526 1526 1525 1524 1524 1524 1524 1524 1524 1524 1524 1524 1524 1524 1524 1524 1525 1525 1525 1525 1526 1526 1526 1526 1527 1527
1506 1503 1505 1508 1510 1510 1511 1512 1512 1513 1515 1517 1518 1519 1524 1526 1526 1527 1528 1528 1529 1529 1529 1529 1528 1528 1527 1527 1526 1526 1526 1526 1526 1526 1526 1526 1526 1526 1527 1527 1527 1527 1527 1527 1527 1527 1527 1528 1528
1505 1504 1507 1507 1510 1511 1512 1513 1514 1515 1516 1519 1520 1520 1524 1526 1527 1528 1528 1529 1530 1530 1530 1530 1530 1530 1530 1530 1529 1529 1529 1529 1529 1528 1528 1528 1529 1529 1529 1529 1529 1529 1529 1529 1529 1529 1529 1529 1529
1506 1505 1507 1508 1509 1510 1512 1513 1516 1517 1518 1520 1521 1522 1524 1525 1527 1528 1529 1530 1531 1531 1532 1532 1532 1532 1532 1532 1531 1531 1531 1531 1531 1531 1531 1531 1532 1532 1531 1531 1531 1531 1530 1530 1530 1530 1530 1530 1530
1505 1505 1507 1508 1508 1510 1513 1514 1516 1517 1518 1520 1522 1523 1524 1526 1528 1529 1530 1531 1532 1533 1533 1533 1534 1534 1534 1534 1534 1534 1534 1534 1534 1533 1534 1534 1534 1533 1533 1533 1533 1532 1532 1532 1532 1532 1532 1532 1532
1505 1506 1508 1510 1512 1512 1513 1515 1516 1516 1517 1519 1521 1523 1525 1527 1528 1530 1531 1532 1533 1534 1534 1534 1535 1535 1535 1535 1535 1535 1535 1535 1536 1535 1535 1535 1535 1536 1536 1536 1535 1535 1534 1534 1534 1534 1533 1533 1533
1507 1509 1510 1512 1513 1514 1514 1516 1517 1517 1519 1520 1522 1523 1525 1527 1529 1530 1532 1533 1534 1534 1535 1535 1536 1536 1536 1536 1536 1536 1536 1536 1537 1537 1537 1537 1537 1537 1537 1537 1537 1536 1536 1535 1535 1535 1535 1535 1535
1508 1510 1512 1514 1515 1515 1516 1516 1517 1518 1520 1521 1522 1524 1525 1527 1529 1531 1532 1533 1534 1535 1535 1536 1536 1537 1537 1537 1537 1538 1537 1538 1538 1538 1538 1539 1539 1539 1539 1539 1538 1538 1537 1537 1537 1536 1536 1536 1536
1509 1511 1512 1514 1514 1516 1516 1517 1518 1519 1520 1521 1522 1524 1526 1527 1529 1530 1532 1533 1534 1535 1536 1536 1537 1537 1537 1538 1538 1538 1539 1539 1539 1539 1539 1540 1540 1540 1540 1540 1539 1539 1538 1538 1538 1538 1537 1537 1537
1510 1510 1512 1513 1514 1515 1516 1516 1517 1519 1521 1521 1523 1524 1526 1527 1529 1530 1531 1532 1534 1535 1536 1536 1537 1537 1538 1538 1539 1539 1539 1540 1540 1540 1541 1541 1541 1541 1541 1541 1540 1540 1540 1540 1539 1539 1538 1538 1538
1508 1508 1511 1512 1513 1514 1516 1516 1516 1518 1520 1521 1522 1524 1525 1527 1528 1530 1531 1532 1533 1534 1535 1535 1536 1537 1538 1538 1539 1540 1540 1540 1541 1541 1541 1542 1542 1542 1542 1541 1541 1541 1541 1540 1540 1540 1539 1539 1539
1507 1509 1510 1511 1511 1512 1513 1513 1515 1517 1519 1519 1521 1523 1524 1526 1527 1529 1530 1531 1532 1533 1534 1535 1536 1537 1537 1538 1539 1540 1540 1541 1541 1541 1542 1542 1542 1542 1542 1542 1542 1541 1541 1541 1541 1540 1540 1540 1540
1508 1507 1509 1510 1510 1511 1512 1511 1513 1516 1517 1518 1519 1521 1522 1524 1526 1527 1528 1530 1531 1532 1533 1534 1535 1536 1537 1538 1539 1539 1540 1541 1541 1542 1542 1542 1542 1542 1542 1542 1542 1542 1542 1541 1541 1541 1541 1540 1540
1504 1506 1509 1509 1509 1511 1510 1511 1511 1513 1515 1515 1517 1518 1520 1522 1524 1525 1526 1527 1529 1531 1532 1533 1534 1535 1536 1537 1538 1539 1539 1540 1541 1541 1542 1542 1542 1542 1542 1542 1542 1542 1542 1542 1542 1541 1541 1541 1541
1505 1507 1508 1509 1509 1510 1510 1510 1508 1510 1512 1513 1514 1516 1517 1519 1521 1523 1524 1525 1527 1529 1530 1532 1533 1534 1535 1536 1537 1538 1539 1540 1541 1541 1541 1542 1542 1542 1542 1542 1542 1542 1542 1541 1541 1541 1541 1541 1541
1505 1506 1507 1509 1509 1509 1509 1508 1506 1507 1510 1512 1513 1515 1516 1517 1519 1521 1522 1524 1525 1527 1528 1530 1531 1532 1534 1535 1536 1537 1538 1539 1540 1540 1541 1541 1541 1541 1541 1542 1542 1541 1541 1541 1541 1541 1541 1541 1541
1506 1505 1507 1508 1509 1508 1509 1510 1503 1503 1506 1509 1511 1513 1514 1515 1517 1519 1520 1522 1523 1525 1527 1529 1530 1531 1532 1533 1535 1536 1537 1538 1539 1540 1540 1540 1540 1541 1541 1541 1541 1541 1541 1540 1540 1540 1540 1540 1540
1504 1506 1506 1507 1507 1507 1507 1509 1501 1501 1503 1505 1508 1510 1512 1513 1515 1516 1518 1520 1521 1523 1525 1526 1528 1529 1530 1532 1533 1534 1536 1537 1538 1538 1539 1539 1539 1539 1539 1539 1539 1539 1539 1539 1539 1539 1539 1539 1540
1505 1506 1506 1505 1505 1511 1506 1508 1504 1499 1501 1502 1505 1508 1510 1512 1513 1514 1516 1518 1520 1521 1523 1524 1526 1527 1528 1530 1531 1532 1534 1535 1536 1537 1537 1538 1538 1538 1538 1538 1538 1538 1538 1538 1538 1538 1538 1538 1538
1504 1506 1510 1511 1511 1508 1503 1506 1503 1498 1500 1502 1505 1507 1509 1510 1512 1513 1514 1515 1517 1518 1520 1522 1523 1525 1526 1527 1529 1531 1532 1533 1534 1535 1535 1536 1536 1536 1536 1536 1536 1536 1536 1536 1536 1536 1536 1536 1536
1501 1503 1511 1515 1511 1504 1504 1504 1499 1499 1502 1504 1505 1507 1508 1509 1510 1511 1512 1513 1514 1516 1517 1519 1520 1522 1524 1525 1527 1529 1530 1531 1532 1533 1533 1534 1534 1534 1534 1534 1534 1534 1534 1534 1534 1534 1534 1534 1534
1502 1501 1501 1505 1505 1508 1501 1499 1497 1499 1501 1503 1504 1506 1507 1508 1509 1510 1510 1512 1513 1514 1515 1516 1518 1520 1521 1523 1524 1526 1528 1529 1529 1530 1531 1532 1532 1532 1532 1532 1532 1532 1532 1532 1532 1532 1532 1532 1532
1501 1501 1504 1507 1512 1510 1503 1500 1497 1497 1498 1500 1502 1504 1506 1507 1508 1509 1509 1510 1511 1512 1513 1514 1516 1517 1519 1520 1522 1523 1525 1526 1527 1528 1528 1529 1529 1529 1530 1530 1530 1530 1530 1530 1530 1530 1530 1530 1530
1504 1505 1504 1502 1503 1507 1506 1500 1494 1495 1497 1499 1501 1503 1505 1507 1507 1508 1508 1509 1509 1510 1511 1512 1514 1515 1517 1518 1519 1521 1522 1523 1524 1525 1525 1526 1526 1527 1527 1527 1527 1527 1527 1527 1527 1527 1527 1528 1528
1502 1501 1503 1506 1504 1503 1503 1502 1495 1496 1498 1500 1501 1503 1505 1506 1507 1507 1508 1508 1508 1509 1510 1510 1512 1513 1514 1515 1517 1518 1519 1520 1521 1521 1522 1523 1523 1524 1525 1525 1525 1525 1525 1525 1525 1525 1525 1525 1525